EW0608 Weather Reports


time (UTC)temp
F
wind
direction
speed
knots
gust
knots
rain 1hr
in
rain 24hr
in
rain mn
in
humidity
%
barometer
mb
20260506184549 63 143 0.0 0.0 0.00 0.30 0.01 98 1006.0
20260506183048 64 143 0.0 0.0 0.00 0.30 0.01 97 1006.0
20260506181548 63 143 0.0 0.0 0.00 0.30 0.01 97 1006.1
20260506180048 63 143 0.0 0.0 0.00 0.30 0.01 96 1006.4
20260506174555 64 143 0.0 0.0 0.00 0.44 0.01 95 1006.4
20260506174344 64 143 0.0 0.0 0.00 0.44 0.01 95 1007.3
20260506173837 64 143 0.0 0.0 0.00 0.44 0.01 95 1007.1
20260506173349 65 143 0.0 0.0 0.00 0.44 0.01 94 1007.2
20260506173003 64 143 0.0 0.0 0.00 0.44 0.01 94 1006.1
20260506172902 65 143 0.0 0.0 0.00 0.44 0.01 94 1007.0
20260506172354 64 143 0.0 0.0 0.00 0.44 0.01 94 1007.0
20260506171845 65 143 0.0 0.0 0.00 0.44 0.01 95 1007.0
20260506171538 64 143 0.0 0.0 0.00 0.44 0.01 95 1006.0
20260506171338 65 143 0.0 0.0 0.00 0.44 0.01 95 1007.0
20260506170851 65 143 0.0 0.0 0.00 0.44 0.01 94 1007.0
20260506170341 65 143 0.0 0.0 0.00 0.44 0.01 94 1006.9
20260506170012 64 143 0.0 0.0 0.00 0.44 0.01 94 1006.0
20260506165912 65 143 0.0 0.0 0.00 0.62 0.01 94 1006.9
20260506164556 64 143 0.0 0.0 0.00 0.62 0.01 93 1005.8
20260506164355 65 143 0.0 0.0 0.00 0.62 0.01 93 1006.8
20260506163847 64 143 0.0 0.0 0.00 0.62 0.01 92 1006.8
20260506163341 65 143 0.0 0.9 0.00 0.62 0.01 91 1006.8
20260506163055 64 143 0.0 0.9 0.00 0.62 0.01 91 1005.8
20260506162853 65 143 0.0 0.9 0.00 0.62 0.01 90 1006.8
20260506162406 65 143 0.0 0.9 0.01 0.62 0.01 89 1006.7
20260506161838 66 143 0.0 2.6 0.01 0.62 0.01 86 1006.6
20260506161558 65 143 0.0 2.6 0.01 0.62 0.01 85 1005.7
20260506161351 66 143 0.0 2.6 0.01 0.62 0.01 84 1006.7
20260506160903 66 118 0.0 2.6 0.01 0.62 0.01 81 1006.7
20260506160356 66 178 0.9 5.2 0.01 0.62 0.01 80 1006.7
20260506160006 66 203 1.7 5.2 0.01 0.62 0.01 79 1005.7
20260506155906 67 181 2.6 4.3 0.01 0.64 0.01 79 1006.6
20260506155338 67 146 0.9 3.5 0.01 0.64 0.01 80 1006.6
20260506154850 67 95 0.9 5.2 0.01 0.64 0.01 81 1006.5
20260506154544 66 119 2.6 0.0 0.00 0.00 0.01 82 1005.5
20260506154342 66 207 1.7 7.0 0.01 0.64 0.01 81 1006.5
20260506153915 66 98 3.5 7.0 0.01 0.64 0.01 82 1006.5
20260506153347 65 276 2.6 6.1 0.01 0.64 0.01 83 1006.5
20260506153059 65 194 2.6 6.1 0.01 0.64 0.01 84 1005.5
20260506152859 65 248 2.6 6.1 0.01 0.64 0.01 84 1006.5
20260506152350 65 111 0.9 3.5 0.00 0.63 0.00 89 1006.7
20260506151844 64 228 0.9 3.5 0.00 0.63 0.00 90 1006.7
20260506151556 63 178 0.9 3.5 0.00 0.63 0.00 91 1005.7
20260506151356 64 144 0.9 3.5 0.00 0.63 0.00 91 1006.7
20260506144611 61 219 0.0 0.0 0.00 0.79 0.00 96 1005.6
20260506143056 60 219 0.0 0.0 0.00 0.79 0.00 97 1005.8
20260506141554 60 219 0.0 0.0 0.00 0.79 0.00 97 1005.7
20260506140106 59 219 0.0 0.0 0.00 0.79 0.00 98 1005.9
20260506134554 59 219 0.0 0.0 0.00 0.81 0.00 98 1006.2
20260506133116 58 219 0.0 0.0 0.00 0.81 0.00 98 1006.5
20260506131551 58 219 0.0 0.0 0.00 0.81 0.00 97 1006.6
20260506130133 58 219 0.0 0.0 0.00 0.81 0.00 97 1006.1
20260506124553 58 219 0.0 0.0 0.00 0.81 0.00 97 1005.9
20260506123049 57 219 0.0 0.0 0.00 0.81 0.00 96 1006.2
20260506121553 58 219 0.0 0.0 0.00 0.81 0.00 95 1006.3
20260506120047 57 219 0.0 0.0 0.00 0.81 0.00 94 1006.2
20260506114545 58 219 0.0 0.0 0.00 0.81 0.00 92 1006.2
20260506113049 58 219 0.0 0.0 0.00 0.81 0.00 89 1006.2
20260506111540 59 219 0.0 0.0 0.00 0.81 0.00 85 1006.3
20260506110042 60 219 0.0 0.0 0.00 0.81 0.00 81 1006.2
20260506104535 60 219 0.0 0.0 0.00 0.81 0.00 78 1006.0
20260506103033 60 219 0.0 0.0 0.00 0.81 0.00 79 1006.0
20260506101535 61 219 0.0 0.0 0.00 0.81 0.00 75 1005.9
20260506100036 60 219 0.0 0.0 0.00 0.81 0.00 74 1005.5
20260506094530 61 219 0.0 0.0 0.00 0.81 0.00 77 1005.4
20260506093033 61 219 0.0 0.0 0.00 0.81 0.00 72 1005.4
20260506091526 61 219 0.0 0.0 0.00 0.81 0.00 70 1005.6
20260506090024 61 219 0.0 0.0 0.00 0.81 0.00 70 1005.7
20260506084523 61 219 0.0 0.0 0.00 0.81 0.00 69 1005.7
20260506083028 61 219 0.0 0.0 0.00 0.81 0.00 68 1005.8
20260506081519 62 219 0.0 0.0 0.00 0.81 0.00 70 1005.8
20260506073015 62 219 0.0 0.0 0.00 0.81 0.00 64 1005.9
20260506071517 63 219 0.0 0.0 0.00 0.81 0.00 61 1005.9
20260506061504 64 219 0.0 0.0 0.00 0.81 0.00 59 1006.5
20260506044845 67 219 0.9 1.7 0.00 0.81 0.00 55 1008.4
20260506044557 67 219 0.0 1.7 0.00 0.81 0.00 52 1007.6
20260506044356 67 219 0.0 2.6 0.00 0.81 0.00 52 1008.4
20260506043847 68 219 0.9 2.6 0.00 0.81 0.00 51 1008.3
20260506043341 68 219 0.0 0.9 0.00 0.81 0.00 52 1008.3
20260506043057 68 219 0.0 0.9 0.00 0.81 0.00 51 1007.5
20260506042853 69 219 0.0 1.7 0.00 0.81 0.00 49 1008.3
20260506042405 70 219 0.0 2.6 0.00 0.81 0.00 44 1008.4
20260506041836 70 186 0.0 6.1 0.03 0.81 0.00 44 1008.3
20260506041526 70 159 0.0 6.1 0.03 0.81 0.00 46 1007.5
20260506040836 71 131 1.7 4.3 0.05 0.81 0.00 41 1008.2
20260506040349 72 200 0.9 2.6 0.05 0.81 0.00 40 1008.3
20260506040039 71 280 0.0 2.6 0.05 0.81 0.00 40 1007.5
20260506035838 72 141 0.0 3.5 0.05 0.81 0.81 43 1008.3
20260506035411 72 174 0.9 6.1 0.05 0.81 0.81 40 1008.3
20260506034843 72 140 2.6 6.1 0.05 0.81 0.81 39 1008.3
20260506034540 72 108 0.9 5.2 0.05 0.81 0.81 39 1007.6
20260506034335 72 190 1.7 5.2 0.05 0.81 0.81 39 1008.3
20260506033848 73 214 2.6 6.1 0.05 0.81 0.81 39 1008.3
20260506033340 73 167 3.5 6.1 0.05 0.81 0.81 39 1008.3
20260506033053 72 148 1.7 6.1 0.05 0.81 0.81 39 1007.5
20260506032852 73 138 1.7 13.9 0.05 0.81 0.81 39 1008.2
20260506032343 73 195 2.6 13.9 0.05 0.81 0.81 39 1008.3
20260506031856 73 129 1.7 7.8 0.02 0.78 0.78 39 1008.3
20260506031552 72 107 2.6 7.8 0.02 0.78 0.78 39 1007.5
20260506031347 72 186 1.7 7.0 0.00 0.76 0.76 40 1008.3
20260506030839 72 177 1.7 6.1 0.00 0.76 0.76 41 1008.2
20260506030355 71 232 1.7 6.1 0.00 0.76 0.76 42 1008.2
20260506030005 70 141 1.7 6.1 0.00 0.76 0.76 45 1007.6
20260506025903 70 182 1.7 6.1 0.00 0.76 0.76 44 1008.3
20260506025336 69 182 2.6 5.2 0.00 0.76 0.76 45 1008.3
20260506024848 69 117 0.0 4.3 0.00 0.76 0.76 48 1008.4
20260506024549 68 192 0.0 4.3 0.00 0.76 0.76 50 1007.7
20260506024340 68 212 1.7 4.3 0.00 0.76 0.76 47 1008.4
20260506023853 68 87 0.0 2.6 0.00 0.76 0.76 49 1008.4
20260506023406 67 89 0.0 1.7 0.00 0.76 0.76 52 1008.4
20260506023017 67 89 0.0 2.6 0.00 0.76 0.76 51 1007.6
20260506022855 67 89 0.0 2.6 0.00 0.76 0.76 51 1008.4
20260506022348 67 90 284.2 284.2 0.00 0.00 0.76 52 1008.2
20260506021839 67 308 0.0 0.9 0.00 0.76 0.76 52 1008.4
20260506021553 67 276 0.0 1.7 0.00 0.76 0.76 52 1007.7
20260506021353 68 276 0.0 3.5 0.00 0.76 0.76 52 1008.3
20260506020845 68 276 0.9 3.5 0.00 0.76 0.76 48 1008.4
20260506020340 68 149 0.9 3.5 0.00 0.76 0.76 53 1008.4
20260506020049 67 148 0.9 3.5 0.00 0.76 0.76 50 1007.7
20260506015849 68 150 0.0 2.6 0.00 0.76 0.76 49 1008.4
20260506015342 68 228 0.9 2.6 0.00 0.76 0.76 54 1008.3
20260506014838 68 68 0.9 2.6 0.00 0.76 0.76 53 1008.3
20260506014552 68 287 0.0 1.7 0.00 0.76 0.76 55 1007.6
20260506014351 68 142 0.9 2.6 0.00 0.76 0.76 50 1008.2
20260506013845 68 139 0.0 3.5 0.00 0.76 0.76 53 1008.2
20260506013336 68 217 0.9 3.5 0.00 0.76 0.76 54 1008.2
20260506013103 67 292 0.0 1.7 0.00 0.76 0.76 54 1007.6
20260506012849 67 141 0.0 1.7 0.00 0.76 0.76 56 1008.2
20260506012341 67 66 0.0 0.0 0.00 0.76 0.76 54 1008.1
20260506011835 67 66 0.0 0.0 0.00 0.76 0.76 55 1008.2
20260506011516 67 66 0.0 0.0 0.00 0.76 0.76 54 1007.5
20260506011408 68 66 0.0 0.0 0.00 0.76 0.76 54 1008.2
20260506010841 68 63 0.0 0.0 0.00 0.76 0.76 53 1008.2
20260506010353 68 63 0.0 0.0 0.00 0.76 0.76 53 1008.2
20260506010121 68 130 0.0 0.0 0.00 0.76 0.76 53 1007.4
20260506005903 69 144 0.0 0.0 0.00 0.76 0.76 54 1008.1
20260506005336 69 144 0.0 0.0 0.00 0.76 0.76 51 1008.0
20260506004848 70 144 0.0 0.0 0.00 0.76 0.76 48 1008.0
20260506004542 70 144 0.0 0.0 0.00 0.76 0.76 46 1007.2
20260506004342 70 144 0.0 0.0 0.00 0.76 0.76 47 1007.9
20260506003855 70 144 0.0 0.9 0.00 0.76 0.76 49 1007.8
20260506003348 70 144 0.0 2.6 0.00 0.76 0.76 50 1007.9
20260506003041 70 293 0.0 3.5 0.00 0.76 0.76 49 1007.0
20260506002841 72 293 0.9 3.5 0.00 0.76 0.76 49 1007.8
20260506002412 72 79 1.7 3.5 0.00 0.76 0.76 43 1007.6
20260506001844 73 192 1.7 2.6 0.00 0.76 0.76 48 1007.5
20260506001606 73 168 0.9 2.6 0.00 0.76 0.76 46 1006.8
20260506001357 73 137 0.0 0.9 0.00 0.76 0.76 44 1007.6
20260506000850 74 137 0.0 1.7 0.00 0.76 0.76 44 1007.5
20260506000345 74 200 0.0 1.7 0.02 0.76 0.76 43 1007.4
20260506000015 74 203 0.0 1.7 0.02 0.76 0.76 41 1006.8
20260505235913 75 203 0.0 1.7 0.02 0.76 0.76 44 1007.5
20260505234849 76 82 1.7 3.5 0.02 0.76 0.76 37 1007.3
20260505234543 76 142 0.0 2.6 0.02 0.76 0.76 37 1006.7
20260505234343 77 192 0.9 2.6 0.02 0.76 0.76 39 1007.3
20260505233855 77 94 0.9 2.6 0.02 0.76 0.76 35 1007.3
20260505233408 78 163 0.9 5.2 0.02 0.76 0.76 34 1007.2
20260505233046 77 143 0.0 5.2 0.02 0.76 0.76 34 1006.5
20260505232838 78 149 1.7 4.3 0.02 0.76 0.76 34 1007.2
20260505232336 78 129 2.6 4.3 0.02 0.76 0.76 35 1007.1
20260505231904 79 139 1.7 6.1 0.02 0.76 0.76 32 1007.1
20260505231517 78 18 0.9 7.0 0.02 0.76 0.76 32 1006.4
20260505231416 79 188 1.7 7.0 0.02 0.76 0.76 32 1007.0
20260505230846 79 175 3.5 7.0 0.02 0.76 0.76 31 1006.9
20260505230344 80 196 1.7 7.0 0.00 0.74 0.74 30 1006.9
20260505230056 79 219 1.7 7.0 0.02 0.74 0.74 30 1006.2
20260505225851 80 211 2.6 7.8 0.02 0.74 0.74 30 1006.8
20260505225344 80 201 2.6 7.8 0.02 0.74 0.74 30 1006.9
20260505224837 80 5 0.9 7.8 0.02 0.74 0.74 30 1006.8
20260505224549 80 233 1.7 7.8 0.03 0.74 0.74 31 1006.2
20260505224348 80 179 2.6 7.8 0.03 0.74 0.74 30 1006.9
20260505223841 80 178 1.7 6.1 0.03 0.74 0.74 30 1006.9
20260505223354 80 87 0.9 7.0 0.03 0.74 0.74 31 1006.9
20260505223048 80 128 0.9 7.0 0.03 0.74 0.74 31 1006.3
20260505222846 80 152 2.6 7.0 0.03 0.74 0.74 31 1007.0
20260505222357 80 215 2.6 7.8 0.03 0.74 0.74 31 1007.0
20260505221847 80 268 2.6 7.0 0.03 0.74 0.74 30 1007.0
20260505221502 80 180 1.7 7.0 0.03 0.74 0.74 30 1006.4
20260505221400 81 210 2.6 7.0 0.03 0.74 0.74 30 1007.0
20260505220852 81 173 2.6 10.4 0.03 0.74 0.74 29 1007.0
20260505220046 81 182 1.7 7.0 0.01 0.72 0.72 26 1006.2
20260505215846 82 188 1.7 6.1 0.01 0.74 0.72 26 1006.8
20260505214902 82 202 4.3 13.0 0.03 0.74 0.72 25 1006.7
20260505214614 82 153 1.7 6.1 0.02 0.73 0.71 26 1006.1
20260505214353 83 123 0.9 3.5 0.02 0.73 0.71 27 1006.7
20260505213846 83 75 0.9 3.5 0.02 0.73 0.71 26 1006.7
20260505213339 83 137 0.0 2.6 0.02 0.73 0.71 27 1006.8
20260505213055 82 209 0.9 2.6 0.02 0.73 0.71 27 1006.0
20260505212851 82 140 0.9 2.6 0.02 0.73 0.71 26 1006.7
20260505212345 83 199 0.9 3.5 0.03 0.73 0.71 26 1006.8
20260505211917 83 69 0.9 6.1 0.03 0.73 0.71 26 1006.8
20260505211548 83 35 0.0 6.1 0.03 0.73 0.71 26 1006.1
20260505211347 83 158 1.7 6.1 0.03 0.73 0.71 27 1006.8
20260505210839 83 123 1.7 5.2 0.03 0.73 0.71 26 1006.8
20260505210352 84 90 0.9 5.2 0.03 0.73 0.71 25 1006.6
20260505210047 84 168 1.7 5.2 0.03 0.73 0.71 25 1006.0
20260505205846 84 94 0.9 4.3 0.03 0.77 0.71 27 1006.7
20260505205339 84 130 0.9 4.3 0.01 0.75 0.69 26 1006.7
20260505204852 84 169 1.7 4.3 0.01 0.75 0.69 27 1006.5
20260505204545 84 117 0.0 3.5 0.02 0.75 0.69 26 1005.9
20260505204344 84 118 0.9 3.5 0.03 0.75 0.69 26 1006.6
20260505203837 84 132 0.9 3.5 0.03 0.75 0.69 27 1006.7
20260505203349 83 50 1.7 4.3 0.03 0.75 0.69 26 1006.7
20260505203042 83 53 0.0 7.0 0.03 0.75 0.69 25 1006.1
20260505202842 83 187 0.0 7.0 0.04 0.75 0.69 25 1006.8
20260505202353 84 44 1.7 6.1 0.05 0.74 0.68 26 1006.7
20260505201846 84 209 1.7 6.1 0.05 0.74 0.68 25 1006.8
20260505201600 84 148 0.0 6.1 0.05 0.74 0.68 25 1006.1
20260505201358 84 54 1.7 6.1 0.05 0.74 0.68 25 1006.7
20260505200850 85 5 1.7 6.1 0.05 0.74 0.68 25 1006.8
20260505200343 85 112 2.6 8.7 0.05 0.74 0.68 25 1006.9
20260505200054 85 158 4.3 8.7 0.05 0.74 0.68 25 1006.1
20260505195853 85 51 1.7 8.7 0.06 0.75 0.68 25 1006.9
20260505195345 85 88 1.7 9.6 0.06 0.75 0.68 23 1006.8
20260505194839 86 80 3.5 9.6 0.08 0.75 0.68 23 1006.8
20260505194553 85 115 1.7 5.2 0.07 0.74 0.67 24 1006.2
20260505194352 86 145 0.9 7.0 0.07 0.73 0.66 24 1006.9
20260505193904 86 167 0.9 7.0 0.09 0.73 0.66 23 1007.0
20260505193337 86 71 2.6 8.7 0.09 0.73 0.66 24 1006.9
20260505193049 85 69 2.6 12.2 0.09 0.73 0.66 23 1006.4
20260505192849 86 171 3.5 12.2 0.08 0.72 0.65 23 1007.1
20260505192342 88 126 2.6 7.0 0.06 0.70 0.63 23 1007.1
20260505191853 89 83 0.9 7.0 0.06 0.70 0.63 24 1007.0
20260505191507 87 288 2.6 7.0 0.06 0.70 0.63 23 1006.4
20260505191407 87 128 1.7 6.1 0.07 0.70 0.63 24 1007.1
20260505190853 86 96 2.6 7.8 0.11 0.70 0.63 22 1007.3
20260505190348 86 99 2.6 9.6 0.11 0.70 0.63 23 1007.2
20260505190039 87 101 2.6 9.6 0.11 0.70 0.63 22 1006.7
20260505185835 88 113 3.5 8.7 0.10 0.70 0.62 23 1007.4